Time,TemperatureF,DewpointF,PressureIn,WindDirection,WindDirectionDegrees,WindSpeedMPH,WindSpeedGustMPH,Humidity,HourlyPrecipIn,Conditions,Clouds,dailyrainin,SolarRadiationWatts/m^2,SoftwareType,DateUTC
2013-04-26 00:02:00,49.0,17.0,-100.00,WNW,296,5.0,6.0,28,0.00,,,0.00,0.000000,,2013-04-26 06:02:00,
2013-04-26 00:11:00,49.0,17.0,-100.00,WNW,296,5.0,6.0,28,0.00,,,0.00,0.000000,,2013-04-26 06:11:00,
2013-04-26 00:32:00,48.0,16.0,-100.00,WNW,291,4.0,6.0,28,0.00,,,-99.99,0.000000,,2013-04-26 06:32:00,
2013-04-26 00:42:00,48.0,16.0,-100.00,WNW,291,4.0,6.0,28,0.00,,,-99.99,0.000000,,2013-04-26 06:42:00,
2013-04-26 00:52:00,48.0,16.0,-100.00,WNW,291,4.0,6.0,28,0.00,,,-99.99,0.000000,,2013-04-26 06:52:00,
2013-04-26 01:01:00,48.0,16.0,-100.00,WNW,291,4.0,6.0,28,0.00,,,-99.99,0.000000,,2013-04-26 07:01:00,
2013-04-26 01:11:00,48.0,16.0,-100.00,WNW,291,4.0,6.0,28,0.00,,,-99.99,0.000000,,2013-04-26 07:11:00,
2013-04-26 01:32:00,48.0,16.0,-100.00,NW,310,4.0,7.0,28,0.00,,,0.00,0.000000,,2013-04-26 07:32:00,
2013-04-26 01:42:00,48.0,16.0,-100.00,NW,310,4.0,7.0,28,0.00,,,0.00,0.000000,,2013-04-26 07:42:00,
2013-04-26 01:52:00,48.0,16.0,-100.00,NW,310,4.0,7.0,28,0.00,,,0.00,0.000000,,2013-04-26 07:52:00,
2013-04-26 02:02:00,48.0,16.0,-100.00,NW,310,4.0,7.0,28,0.00,,,0.00,0.000000,,2013-04-26 08:02:00,
2013-04-26 02:11:00,48.0,16.0,-100.00,NW,310,4.0,7.0,28,0.00,,,0.00,0.000000,,2013-04-26 08:11:00,
2013-04-26 02:32:00,47.0,19.0,-100.00,WNW,292,3.0,7.0,32,0.00,,,0.00,0.000000,,2013-04-26 08:32:00,
2013-04-26 02:42:00,47.0,19.0,-100.00,WNW,292,3.0,7.0,32,0.00,,,0.00,0.000000,,2013-04-26 08:42:00,
2013-04-26 02:52:00,47.0,19.0,-100.00,WNW,292,3.0,7.0,32,0.00,,,0.00,0.000000,,2013-04-26 08:52:00,
2013-04-26 03:01:00,47.0,19.0,-100.00,WNW,292,3.0,7.0,32,0.00,,,0.00,0.000000,,2013-04-26 09:01:00,
2013-04-26 03:11:00,47.0,19.0,-100.00,WNW,292,3.0,7.0,32,0.00,,,0.00,0.000000,,2013-04-26 09:11:00,
2013-04-26 03:33:00,45.0,18.0,-100.00,West,281,2.0,6.0,34,0.00,,,0.00,0.000000,,2013-04-26 09:33:00,
2013-04-26 03:43:00,45.0,18.0,-100.00,West,281,2.0,6.0,34,0.00,,,0.00,0.000000,,2013-04-26 09:43:00,
2013-04-26 03:53:00,45.0,18.0,-100.00,West,281,2.0,6.0,34,0.00,,,0.00,0.000000,,2013-04-26 09:53:00,
2013-04-26 04:03:00,45.0,18.0,-100.00,West,281,2.0,6.0,34,0.00,,,0.00,0.000000,,2013-04-26 10:03:00,
2013-04-26 04:12:00,45.0,18.0,-100.00,West,281,2.0,6.0,34,0.00,,,0.00,0.000000,,2013-04-26 10:12:00,
2013-04-26 04:33:00,43.0,19.0,-100.00,SW,215,1.0,3.0,38,0.00,,,0.00,0.000000,,2013-04-26 10:33:00,
2013-04-26 04:42:00,43.0,19.0,-100.00,SW,215,1.0,3.0,38,0.00,,,0.00,0.000000,,2013-04-26 10:42:00,
2013-04-26 04:52:00,43.0,19.0,-100.00,SW,215,1.0,3.0,38,0.00,,,0.00,0.000000,,2013-04-26 10:52:00,
2013-04-26 05:02:00,43.0,19.0,-100.00,SW,215,1.0,3.0,38,0.00,,,0.00,0.000000,,2013-04-26 11:02:00,
2013-04-26 05:11:00,43.0,19.0,-100.00,SW,215,1.0,3.0,38,0.00,,,0.00,0.000000,,2013-04-26 11:11:00,
2013-04-26 05:32:00,48.0,17.0,-100.00,WNW,303,4.0,7.0,29,0.00,,,0.00,0.000000,,2013-04-26 11:32:00,
2013-04-26 05:42:00,48.0,17.0,-100.00,WNW,303,4.0,7.0,29,0.00,,,0.00,0.000000,,2013-04-26 11:42:00,
2013-04-26 05:52:00,48.0,17.0,-100.00,WNW,303,4.0,7.0,29,0.00,,,0.00,0.000000,,2013-04-26 11:52:00,
2013-04-26 06:01:00,48.0,17.0,-100.00,WNW,303,4.0,7.0,29,0.00,,,0.00,0.000000,,2013-04-26 12:01:00,
2013-04-26 06:11:00,48.0,17.0,-100.00,WNW,303,4.0,7.0,29,0.00,,,0.00,0.000000,,2013-04-26 12:11:00,
2013-04-26 06:32:00,49.0,18.0,-100.00,WNW,302,7.0,11.0,29,0.00,,,-99.99,4.000000,,2013-04-26 12:32:00,
2013-04-26 06:42:00,49.0,18.0,-100.00,WNW,302,7.0,11.0,29,0.00,,,-99.99,4.000000,,2013-04-26 12:42:00,
2013-04-26 06:52:00,49.0,18.0,-100.00,WNW,302,7.0,11.0,29,0.00,,,-99.99,4.000000,,2013-04-26 12:52:00,
2013-04-26 07:01:00,49.0,18.0,-100.00,WNW,302,7.0,11.0,29,0.00,,,-99.99,4.000000,,2013-04-26 13:01:00,
2013-04-26 07:11:00,49.0,18.0,-100.00,WNW,302,7.0,11.0,29,0.00,,,-99.99,4.000000,,2013-04-26 13:11:00,
2013-04-26 07:32:00,52.0,20.0,-100.00,NW,318,6.0,13.0,28,0.00,,,0.00,87.000000,,2013-04-26 13:32:00,
2013-04-26 07:42:00,52.0,20.0,-100.00,NW,318,6.0,13.0,28,0.00,,,0.00,87.000000,,2013-04-26 13:42:00,
2013-04-26 07:52:00,52.0,20.0,-100.00,NW,318,6.0,13.0,28,0.00,,,0.00,87.000000,,2013-04-26 13:52:00,
2013-04-26 08:01:00,52.0,20.0,-100.00,NW,318,6.0,13.0,28,0.00,,,0.00,87.000000,,2013-04-26 14:01:00,
2013-04-26 08:11:00,52.0,20.0,-100.00,NW,318,6.0,13.0,28,0.00,,,0.00,87.000000,,2013-04-26 14:11:00,
2013-04-26 08:42:00,56.0,22.0,-100.00,NW,315,5.0,12.0,26,0.00,,,0.00,119.000000,,2013-04-26 14:42:00,
2013-04-26 08:52:00,56.0,22.0,-100.00,NW,315,5.0,12.0,26,0.00,,,0.00,119.000000,,2013-04-26 14:52:00,
2013-04-26 09:01:00,56.0,22.0,-100.00,NW,315,5.0,12.0,26,0.00,,,0.00,119.000000,,2013-04-26 15:01:00,
2013-04-26 09:12:00,56.0,22.0,-100.00,NW,315,5.0,12.0,26,0.00,,,0.00,119.000000,,2013-04-26 15:12:00,
2013-04-26 09:33:00,59.0,24.0,-100.00,NNE,28,3.0,12.0,26,0.00,,,-99.99,51.000000,,2013-04-26 15:33:00,
2013-04-26 09:43:00,59.0,24.0,-100.00,NNE,28,3.0,12.0,26,0.00,,,-99.99,51.000000,,2013-04-26 15:43:00,
2013-04-26 09:53:00,59.0,24.0,-100.00,NNE,28,3.0,12.0,26,0.00,,,-99.99,51.000000,,2013-04-26 15:53:00,
2013-04-26 10:03:00,59.0,24.0,-100.00,NNE,28,3.0,12.0,26,0.00,,,-99.99,51.000000,,2013-04-26 16:03:00,
2013-04-26 10:12:00,59.0,24.0,-100.00,NNE,28,3.0,12.0,26,0.00,,,-99.99,51.000000,,2013-04-26 16:12:00,
2013-04-26 10:33:00,58.0,23.0,-100.00,North,10,3.0,13.0,26,0.00,,,0.00,328.000000,,2013-04-26 16:33:00,
2013-04-26 10:42:00,58.0,23.0,-100.00,North,10,3.0,13.0,26,0.00,,,0.00,328.000000,,2013-04-26 16:42:00,
2013-04-26 10:53:00,58.0,23.0,-100.00,North,10,3.0,13.0,26,0.00,,,0.00,328.000000,,2013-04-26 16:53:00,
2013-04-26 11:02:00,58.0,23.0,-100.00,North,10,3.0,13.0,26,0.00,,,0.00,328.000000,,2013-04-26 17:02:00,
2013-04-26 11:12:00,58.0,23.0,-100.00,North,10,3.0,13.0,26,0.00,,,0.00,328.000000,,2013-04-26 17:12:00,
2013-04-26 11:42:00,62.0,26.0,-100.00,NNW,332,3.0,12.0,25,0.00,,,0.00,522.000000,,2013-04-26 17:42:00,
2013-04-26 11:52:00,62.0,26.0,-100.00,NNW,332,3.0,12.0,25,0.00,,,0.00,522.000000,,2013-04-26 17:52:00,
2013-04-26 12:02:00,62.0,26.0,-100.00,NNW,332,3.0,12.0,25,0.00,,,0.00,522.000000,,2013-04-26 18:02:00,
2013-04-26 12:12:00,62.0,26.0,-100.00,NNW,332,3.0,12.0,25,0.00,,,0.00,522.000000,,2013-04-26 18:12:00,
2013-04-26 12:33:00,58.0,23.0,-100.00,NE,43,4.0,10.0,26,0.00,,,0.00,392.000000,,2013-04-26 18:33:00,
2013-04-26 12:42:00,58.0,23.0,-100.00,NE,43,4.0,10.0,26,0.00,,,0.00,392.000000,,2013-04-26 18:42:00,
2013-04-26 12:52:00,58.0,23.0,-100.00,NE,43,4.0,10.0,26,0.00,,,0.00,392.000000,,2013-04-26 18:52:00,
2013-04-26 13:01:00,58.0,23.0,-100.00,NE,43,4.0,10.0,26,0.00,,,0.00,392.000000,,2013-04-26 19:01:00,
2013-04-26 13:12:00,58.0,23.0,-100.00,NE,43,4.0,10.0,26,0.00,,,0.00,392.000000,,2013-04-26 19:12:00,
2013-04-26 13:32:00,60.0,25.0,-100.00,ESE,105,3.0,9.0,26,0.00,,,0.00,540.000000,,2013-04-26 19:32:00,
2013-04-26 13:42:00,60.0,25.0,-100.00,ESE,105,3.0,9.0,26,0.00,,,0.00,540.000000,,2013-04-26 19:42:00,
2013-04-26 13:52:00,60.0,25.0,-100.00,ESE,105,3.0,9.0,26,0.00,,,0.00,540.000000,,2013-04-26 19:52:00,
2013-04-26 14:02:00,60.0,25.0,-100.00,ESE,105,3.0,9.0,26,0.00,,,0.00,540.000000,,2013-04-26 20:02:00,
2013-04-26 14:11:00,60.0,25.0,-100.00,ESE,105,3.0,9.0,26,0.00,,,0.00,540.000000,,2013-04-26 20:11:00,
2013-04-26 14:42:00,63.0,27.0,-100.00,NNE,30,3.0,8.0,25,0.00,,,0.00,669.000000,,2013-04-26 20:42:00,
2013-04-26 14:52:00,63.0,27.0,-100.00,NNE,30,3.0,8.0,25,0.00,,,0.00,669.000000,,2013-04-26 20:52:00,
2013-04-26 15:02:00,63.0,27.0,-100.00,NNE,30,3.0,8.0,25,0.00,,,0.00,669.000000,,2013-04-26 21:02:00,
2013-04-26 15:11:00,63.0,27.0,-100.00,NNE,30,3.0,8.0,25,0.00,,,0.00,669.000000,,2013-04-26 21:11:00,
2013-04-26 15:33:00,62.0,28.0,-100.00,SSE,162,3.0,12.0,27,0.00,,,0.00,718.000000,,2013-04-26 21:33:00,
2013-04-26 15:42:00,62.0,28.0,-100.00,SSE,162,3.0,12.0,27,0.00,,,0.00,718.000000,,2013-04-26 21:42:00,
2013-04-26 15:53:00,62.0,28.0,-100.00,SSE,162,3.0,12.0,27,0.00,,,0.00,718.000000,,2013-04-26 21:53:00,
2013-04-26 16:02:00,62.0,28.0,-100.00,SSE,162,3.0,12.0,27,0.00,,,0.00,718.000000,,2013-04-26 22:02:00,
2013-04-26 16:12:00,62.0,28.0,-100.00,SSE,162,3.0,12.0,27,0.00,,,0.00,718.000000,,2013-04-26 22:12:00,
2013-04-26 16:33:00,64.0,26.0,-100.00,SSW,202,3.0,9.0,24,0.00,,,0.00,720.000000,,2013-04-26 22:33:00,
2013-04-26 16:42:00,64.0,26.0,-100.00,SSW,202,3.0,9.0,24,0.00,,,0.00,720.000000,,2013-04-26 22:42:00,
2013-04-26 16:52:00,64.0,26.0,-100.00,SSW,202,3.0,9.0,24,0.00,,,0.00,720.000000,,2013-04-26 22:52:00,
2013-04-26 17:02:00,64.0,26.0,-100.00,SSW,202,3.0,9.0,24,0.00,,,0.00,720.000000,,2013-04-26 23:02:00,
2013-04-26 17:11:00,64.0,26.0,-100.00,SSW,202,3.0,9.0,24,0.00,,,0.00,720.000000,,2013-04-26 23:11:00,
2013-04-26 17:32:00,63.0,24.0,-100.00,NE,35,3.0,7.0,22,0.00,,,0.00,480.000000,,2013-04-26 23:32:00,
2013-04-26 17:42:00,63.0,24.0,-100.00,NE,35,3.0,7.0,22,0.00,,,0.00,480.000000,,2013-04-26 23:42:00,
2013-04-26 17:52:00,63.0,24.0,-100.00,NE,35,3.0,7.0,22,0.00,,,0.00,480.000000,,2013-04-26 23:52:00,
2013-04-26 18:01:00,63.0,24.0,-100.00,NE,35,3.0,7.0,22,0.00,,,0.00,480.000000,,2013-04-27 00:01:00,
2013-04-26 18:11:00,63.0,24.0,-100.00,NE,35,3.0,7.0,22,0.00,,,0.00,480.000000,,2013-04-27 00:11:00,
2013-04-26 18:32:00,63.0,26.0,-100.00,South,172,2.0,5.0,24,0.00,,,0.00,417.000000,,2013-04-27 00:32:00,
2013-04-26 18:42:00,63.0,26.0,-100.00,South,172,2.0,5.0,24,0.00,,,0.00,417.000000,,2013-04-27 00:42:00,
2013-04-26 18:52:00,63.0,26.0,-100.00,South,172,2.0,5.0,24,0.00,,,0.00,417.000000,,2013-04-27 00:52:00,
2013-04-26 19:01:00,63.0,26.0,-100.00,South,172,2.0,5.0,24,0.00,,,0.00,417.000000,,2013-04-27 01:01:00,
2013-04-26 19:12:00,63.0,26.0,-100.00,South,172,2.0,5.0,24,0.00,,,0.00,417.000000,,2013-04-27 01:12:00,
2013-04-26 19:42:00,56.0,27.0,-100.00,SW,222,3.0,5.0,32,0.00,,,0.00,95.000000,,2013-04-27 01:42:00,
2013-04-26 19:52:00,56.0,27.0,-100.00,SW,222,3.0,5.0,32,0.00,,,0.00,95.000000,,2013-04-27 01:52:00,
2013-04-26 20:01:00,56.0,27.0,-100.00,SW,222,3.0,5.0,32,0.00,,,0.00,95.000000,,2013-04-27 02:01:00,
2013-04-26 20:11:00,56.0,27.0,-100.00,SW,222,3.0,5.0,32,0.00,,,0.00,95.000000,,2013-04-27 02:11:00,
2013-04-26 20:42:00,53.0,27.0,-100.00,WSW,246,7.0,9.0,36,0.00,,,0.00,11.000000,,2013-04-27 02:42:00,
2013-04-26 20:52:00,53.0,27.0,-100.00,WSW,246,7.0,9.0,36,0.00,,,0.00,11.000000,,2013-04-27 02:52:00,
2013-04-26 21:02:00,53.0,27.0,-100.00,WSW,246,7.0,9.0,36,0.00,,,0.00,11.000000,,2013-04-27 03:02:00,
2013-04-26 21:11:00,53.0,27.0,-100.00,WSW,246,7.0,9.0,36,0.00,,,0.00,11.000000,,2013-04-27 03:11:00,
2013-04-26 21:43:00,54.0,26.0,-100.00,WSW,242,7.0,10.0,33,0.00,,,0.00,0.000000,,2013-04-27 03:43:00,
2013-04-26 21:53:00,54.0,26.0,-100.00,WSW,242,7.0,10.0,33,0.00,,,0.00,0.000000,,2013-04-27 03:53:00,
2013-04-26 22:03:00,54.0,26.0,-100.00,WSW,242,7.0,10.0,33,0.00,,,0.00,0.000000,,2013-04-27 04:03:00,
2013-04-26 22:12:00,54.0,26.0,-100.00,WSW,242,7.0,10.0,33,0.00,,,0.00,0.000000,,2013-04-27 04:12:00,
2013-04-26 22:43:00,52.0,25.0,-100.00,WSW,242,8.0,11.0,34,0.00,,,0.00,0.000000,,2013-04-27 04:43:00,
2013-04-26 22:53:00,52.0,25.0,-100.00,WSW,242,8.0,11.0,34,0.00,,,0.00,0.000000,,2013-04-27 04:53:00,
2013-04-26 23:02:00,52.0,25.0,-100.00,WSW,242,8.0,11.0,34,0.00,,,0.00,0.000000,,2013-04-27 05:02:00,
2013-04-26 23:12:00,52.0,25.0,-100.00,WSW,242,8.0,11.0,34,0.00,,,0.00,0.000000,,2013-04-27 05:12:00,
2013-04-26 23:42:00,53.0,24.0,-100.00,WSW,248,7.0,11.0,32,0.00,,,0.00,0.000000,,2013-04-27 05:42:00,
2013-04-26 23:52:00,53.0,24.0,-100.00,WSW,248,7.0,11.0,32,0.00,,,0.00,0.000000,,2013-04-27 05:52:00,